Regional Weather Roundup
Issued by NWS

Home | Current Version | Previous Version | Graphics & Text | Print | Product List | Glossary On
Versions: 1 2 3 4 5 6 7 8 9 10 11 12 13 14 15 16 17 18 19 20 21 22 23 24 25 26 27 28 29 30 31 32 33 34 35 36 37 38 39 40 41 42 43 44 45 46 47 48 49 50
000
ASUS43 KMPX 181010
RWRMN
WEATHER ROUNDUP FOR MINNESOTA
NATIONAL WEATHER SERVICE TWIN CITIES/CHANHASSEN MN
500 AM CDT WED OCT 18 2017


NOTE: "FAIR" INDICATES FEW OR NO CLOUDS BELOW 12,000 FEET WITH NO
SIGNIFICANT WEATHER AND/OR OBSTRUCTIONS TO VISIBILITY. N/A MEANS
CURRENT SKY AND/OR WEATHER CONDITIONS ARE NOT AVAILABLE.

MNZ060>063-068>070-181100-
   Twin Cities Metro

CITY           SKY/WX    TMP DP  RH WIND       PRES   REMARKS
TWIN CITIES    CLEAR     51  45  79 SE6       29.85F
ST PAUL        CLEAR     49  45  86 SE5       29.87S
CRYSTAL        CLEAR     49  41  74 S7        29.83S
BLAINE         CLEAR     52  45  76 S7        29.84R
LAKEVILLE      CLEAR     48  45  87 CALM      29.86S
EDEN PRAIRIE   CLEAR     53  45  74 S12       29.84S
SOUTH ST PAUL  CLEAR     49  43  82 CALM      29.86S
LAKE ELMO      FAIR      50  45  81 S6        29.87S
$$
MNZ001>005-007-008-013>017-022>024-027-028-181100-
   Northwest Minnesota

CITY           SKY/WX    TMP DP  RH WIND       PRES   REMARKS
BEMIDJI        CLEAR     53  38  58 S8        29.63F
HALLOCK        CLOUDY    52  37  58 S13       29.48R
ROSEAU         CLEAR     59  43  55 S20G25    29.45F
THIEF RVR FALL PTCLDY    57  39  51 S17       29.53F
CROOKSTON      PTCLDY    54  39  58 SW20      29.54S
FOSSTON        CLEAR     57  36  44 S20G25    29.60S
DETROIT LAKES  CLEAR     59  39  47 S13       29.66F
MOORHEAD       CLOUDY    48  39  71 S15       29.62F
PARK RAPIDS    CLOUDY    46  39  76 S5        29.68F
MAHNOMEN       FAIR      55  39  55 S16       29.60F
$$
MNZ006-009>011-018-025>026-181100-
   North Central Minnesota

CITY           SKY/WX    TMP DP  RH WIND       PRES   REMARKS
BAUDETTE       CLOUDY    55  41  59 S13       29.52F
FLAG ISLAND    CLEAR     57  43  58 S16       29.43F
INTL FALLS     CLOUDY    59  38  45 S12G23    29.57F
WASKISH        CLOUDY    61  39  44 S10G20    29.58F
BIG FORK       PTCLDY    54  39  58 S8        29.66F
LONGVILLE      CLOUDY    54  39  58 S7        29.70F
GRAND RAPIDS   CLEAR     52  39  61 S10       29.72F
CRANE LAKE     CLEAR     54  37  54 S8        29.66F
ORR            CLEAR     55  36  47 S9        29.64F
COOK           CLEAR     55  39  54 S9        29.68F
WALKER         FAIR      55  39  55 SW13G20   29.66F
$$
MNZ012-019>021-037-181100-
   Northeast Minnesota

CITY           SKY/WX    TMP DP  RH WIND       PRES   REMARKS
DULUTH         CLEAR     51  43  74 SW10      29.79S
ELY            CLEAR     57  36  44 SW10G16   29.71F
HIBBING        CLEAR     43  36  76 S6        29.72F
EVELETH        CLEAR     41  40  97 CALM      29.75F
DULUTH HARBOR  CLEAR     54  46  76 SW6       29.79S
TWO HARBORS    CLEAR     48  43  81 SW3       29.77S
GRAND MARAIS     N/A     43  42  97 N3        29.78S
G MARAIS ARPRT CLEAR     48  39  71 S5        29.79S
$$
MNZ029>031-032-039>041-046>048-054>057-064-181100-
   West Central Minnesota

CITY           SKY/WX    TMP DP  RH WIND       PRES   REMARKS
FERGUS FALLS   CLOUDY    52  41  66 S12       29.69F
WHEATON        CLOUDY    52  39  62 S5        29.70F
MORRIS         CLOUDY    46  43  87 SE9       29.71S
ALEXANDRIA     CLOUDY    56  43  61 S13G22    29.73F
ELBOW LAKE     FAIR      50  43  76 S10       29.71F
WADENA         CLOUDY    54  41  62 S9        29.69F
GLENWOOD       CLOUDY    54  45  71 S13       29.75F
APPLETON       CLEAR     55  43  62 S7        29.73S
BENSON         CLOUDY    50  43  76 S10       29.75F
ORTONVILLE     CLOUDY    54  43  66 N7        29.71S
MADISON        CLEAR     54  45  71 S8        29.74R
WILLMAR        FAIR      52  45  76 SE6       29.79S
$$
MNZ033>034-036-042>043-049>051-058-059-181100-
   Central Minnesota

CITY           SKY/WX    TMP DP  RH WIND       PRES   REMARKS
ST CLOUD       CLEAR     47  43  86 S8        29.80S
SAUK CENTRE    FAIR      53  43  69 S9        29.77S
PAYNESVILLE    CLOUDY    53  44  72 S8        29.79S
AITKIN         CLEAR     54  39  58 S7        29.74F
PINE RIVER     CLOUDY    46  39  76 SE8       29.75F
BRAINERD       CLEAR     52  41  66 S9        29.75F
STAPLES        CLOUDY    52  39  62 S10       29.71F
LONG PRAIRIE   FAIR      52  41  66 SE7       29.76F
LITTLE FALLS   CLOUDY    50  36  57 S3        29.78S
LITCHFIELD     CLEAR     52  46  82 CALM      29.81S
BUFFALO        CLEAR     53  44  70 S5        29.84R
MAPLE LAKE     CLEAR     50  46  84 S5        29.83R
HUTCHINSON     CLOUDY    47  44  90 SE3       29.83S
$$
MNZ037-044-045-052-053-181100-
   East Central Minnesota

CITY           SKY/WX    TMP DP  RH WIND       PRES   REMARKS
PRINCETON      CLEAR     54  45  71 S6        29.81S
MORA           CLEAR     46  41  81 S3        29.83S
CAMBRIDGE      CLEAR     54  43  66 S6        29.82S
RUSH CITY      PTCLDY    48  43  83 S5        29.83S
MOOSE LAKE     CLEAR     46  41  81 SW5       29.79S
HINCKLEY       FAIR      50  45  81 S3        29.82S
CLOQUET        CLEAR     52  41  66 S7        29.78F
MCGREGOR       CLEAR     52  41  66 S8        29.77S
$$
MNZ071>073-080-081-089-090-097-098-181100-
   Southwest Minnesota

CITY           SKY/WX    TMP DP  RH WIND       PRES   REMARKS
MONTEVIDEO     CLEAR     52  43  71 S6        29.76R
GRANITE FALLS  CLOUDY    52  45  78 SE8       29.78S
CANBY          CLEAR     62  42  47 SW12      29.75R
MARSHALL       CLEAR     58  44  60 S17       29.77S
REDWOOD FALLS  CLEAR     52  43  71 S10       29.79F
OLIVIA         CLOUDY    50  43  76 S8        29.79F
PIPESTONE      CLEAR     52  43  71 S9        29.80F
WORTHINGTON    CLEAR     53  45  74 S12       29.85F
JACKSON        CLEAR     48  43  81 S9        29.86S
TRACY          CLOUDY    57  46  66 S14       29.79F
SLAYTON        CLEAR     53  44  71 S10       29.83S
$$
MNZ065>067-074>077-082>085-091>093-181100-
   South Central Minnesota

CITY           SKY/WX    TMP DP  RH WIND       PRES   REMARKS
MANKATO        CLEAR     49  44  83 S7        29.87S
NEW ULM          N/A     46  43  87 S5        29.84R
ST JAMES       CLEAR     46  43  87 S9        29.86S
FAIRMONT       CLEAR     45  42  89 S10       29.87F
GLENCOE        CLEAR     51  45  80 S6        29.83S
FARIBAULT      CLEAR     48  45  87 S7        29.88S
OWATONNA       CLEAR     50  45  81 S14       29.88F
WASECA         CLEAR     52  45  76 S7        29.89S
ALBERT LEA     CLEAR     52  46  82 S7        29.91S
$$
MNZ078>079-086>088-094>096-181100-
   Southeast Minnesota

CITY           SKY/WX    TMP DP  RH WIND       PRES   REMARKS
ROCHESTER      CLEAR     49  44  83 S13       29.93S
RED WING       CLEAR     54  43  66 S6        29.89S
STANTON        CLEAR     52  45  76 S7        29.86S
DODGE CENTER   CLEAR     50  43  76 S10       29.90F
WINONA         CLEAR     54  45  71 SE5       29.94S
AUSTIN         CLEAR     48  43  81 S6        29.92S
PRESTON        CLEAR     48  43  81 S9        29.95S
$$
ABBREVIATIONS USED IN REMARKS
   TC - TEMPERATURES IN CELSIUS
  WCI - WIND CHILL INDEX
   HX - HEAT INDEX
  VSB - VISIBILITY
$$




USA.gov is the U.S. government's official web portal to all federal, state and local government web resources and services.